Skip Page Navigation
NASA JPL Caltech
NASA Logo - Jet Propulsion Laboratory + View the NASA Portal
+ Center for Near-Earth Object Studies
JPL Home Earth Solar System Stars & Galaxies Technology
JPL Solar System Dynamics
BODIES ORBITS EPHEMERIDES TOOLS PHYSICAL DATA DISCOVERY FAQ SITE MAP
IMPORTANT: The SSD Announcement email list is now available. Major changes are coming in the near future, including possible hostname and/or URL changes. To be notified of such changes, subscribe to this email list.

Please visit this page for more details.


JPL Small-Body Database Browser
Search: [ help ]  
523686 (2014 DB143)
Classification: Centaur          SPK-ID: 2523686
Ephemeris | Orbit Diagram | Orbital Elements | Mission Design | Physical Parameters | Discovery Circumstances ]

[ show orbit diagram ]
Orbital Elements at Epoch 2458600.5 (2019-Apr-27.0) TDB
Reference: JPL 7 (heliocentric ecliptic J2000)
 Element Value Uncertainty (1-sigma)   Units 
e .09247407711541315 7.0861e-06  
a 20.26724494734657 0.00025508 au
q 18.39305017516868 0.00010192 au
i 21.31732032564837 2.6424e-05 deg
node 207.8012341294261 4.8175e-05 deg
peri 340.1000910940975 0.004045 deg
M 61.18585943836187 0.0043856 deg
tp 2452936.293666158954
(2003-Oct-23.79366616)
0.30277 TDB
period 33326.56105348923
91.24
0.62916
0.001723
d
yr
n .01080219466455597 2.0393e-07 deg/d
Q 22.14143971952447 0.00027867 au
  Orbit Determination Parameters
   # obs. used (total)      142  
   data-arc span      2989 days (8.18 yr)  
   first obs. used      2010-04-12  
   last obs. used      2018-06-18  
   planetary ephem.      DE431  
   SB-pert. ephem.      SB431-N16  
   condition code      2  
   norm. resid. RMS      .41115  
   source      ORB  
   producer      Otto Matic  
   solution date      2018-Oct-04 12:52:29  

Additional Information
 Earth MOID = 17.4015 au 
 Jupiter MOID = 12.9856 au 
 T_jup = 3.918 
[ show covariance matrix ]

Ephemeris | Orbit Diagram | Orbital Elements | Mission Design | Physical Parameters | Discovery Circumstances ]

Physical Parameter Table
Parameter Symbol Value Units Sigma Reference Notes
absolute magnitude H 9.1   n/a MPO450790  

523686 (2014 DB143)          Discovered 2010-Apr-12 by Pan-STARRS 1 at Haleakala
Reference: Last Updated: 2018-10-01
Ephemeris | Orbit Diagram | Orbital Elements | Mission Design | Physical Parameters | Discovery Circumstances ]
ABOUT SSD CREDITS/AWARDS PRIVACY/COPYRIGHT GLOSSARY LINKS
FirstGov 2020-Jan-29 17:40 UT
(server date/time)  
NASA Home Page
Site Manager:   Ryan S. Park
Webmaster  Alan B. Chamberlin